Flag for Italy Weather past 2 weeks in Palermo, Italy

Now
61 °F

Passing clouds.


Feels Like: 61 °F
Forecast: 60 / 71 °F
Wind: 13 mph from South

Location: Palermo / Punta Raisi

Current Time: May 23, 2015 at 6:56:44 AM

Latest Report: May 23, 2015 at 6:20 AM


Visibility: N/A

Pressure: 29.98 "Hg

Humidity: 77%

Dew point: 54 °F

Location of PalermoLocation

Historic Weather in Palermo — Graph

°F

Palermo temperature yesterday

Maximum temperature yesterday: 64 °F (at 3:20 AM)
Minimum temperature yesterday: 61 °F (at 12:20 AM)
Average temperature yesterday: 63 °F

Past Weeks' High & Low Weather Summary

 TemperatureHumidityPressure
High93 °F (May 15, 12:50 PM)100% (May 8, 6:50 AM)30.30 "Hg (May 8, 6:50 AM)
Low57 °F (May 17, 5:20 AM)14% (May 14, 10:20 PM)29.77 "Hg (May 15, 2:20 PM)
Average68 °F73%30.01 "Hg
* Reported May 8 5:20 AM — May 23 5:50 AM, Palermo, Weather by CustomWeather, © 2015

Note: Actual official high and low records may vary slightly from our data, if they occured in-between our weather recording intervals... More about our weather records

Advertising

Palermo weather history for previous 24 hours

 ConditionsComfort  
Time TempWeatherWind HumidityBarometerVisibility
5:50 AM
Sat, May 23
61 °FPassing clouds.10 mph77%29.95 "HgN/A
5:20 AM61 °FPassing clouds.10 mph77%29.98 "HgN/A
4:20 AM59 °FPassing clouds.7 mph77%29.98 "HgN/A
3:50 AM61 °FPassing clouds.6 mph72%29.98 "HgN/A
3:20 AM63 °FPassing clouds.8 mph73%29.98 "HgN/A
2:50 AM64 °FPassing clouds.7 mph68%30.01 "HgN/A
2:20 AM64 °FPassing clouds.8 mph68%29.98 "HgN/A
1:50 AM64 °FPassing clouds.10 mph68%30.01 "HgN/A
1:20 AM64 °FPassing clouds.12 mph68%30.01 "HgN/A
12:50 AM64 °FPassing clouds.12 mph68%30.01 "HgN/A
12:20 AM64 °FPassing clouds.14 mph73%30.01 "HgN/A
11:50 PM
Fri, May 22
64 °FPassing clouds.14 mph73%30.01 "HgN/A
11:20 PM64 °FPassing clouds.14 mph73%30.01 "HgN/A
10:50 PM64 °FPassing clouds.13 mph73%30.01 "HgN/A
10:20 PM64 °FPassing clouds.14 mph68%30.01 "HgN/A
9:50 PM64 °FPassing clouds.17 mph68%29.98 "HgN/A
9:20 PM64 °FPassing clouds.17 mph68%29.98 "HgN/A
8:50 PM64 °FPassing clouds.16 mph68%29.98 "HgN/A
8:20 PM64 °FPassing clouds.16 mph68%29.98 "HgN/A
7:50 PM64 °FPassing clouds.17 mph64%29.98 "HgN/A
7:20 PM64 °FPassing clouds.18 mph64%29.98 "HgN/A
6:50 PM64 °FPassing clouds.18 mph64%29.95 "HgN/A
6:20 PM64 °FPassing clouds.18 mph68%29.95 "HgN/A
5:50 PM64 °FScattered clouds.17 mph68%29.95 "HgN/A
5:20 PM64 °FScattered clouds.21 mph73%29.95 "HgN/A
4:50 PM64 °FScattered clouds.21 mph68%29.95 "HgN/A
4:20 PM64 °FScattered clouds.16 mph68%29.95 "HgN/A
3:50 PM64 °FPassing clouds.15 mph64%29.95 "HgN/A
3:20 PM64 °FPassing clouds.14 mph64%29.95 "HgN/A
2:50 PM64 °FPassing clouds.14 mph68%29.95 "HgN/A
2:20 PM64 °FPassing clouds.13 mph64%29.95 "HgN/A
1:50 PM64 °FPassing clouds.14 mph60%29.95 "HgN/A
1:20 PM64 °FPassing clouds.12 mph60%29.95 "HgN/A
12:50 PM64 °FPassing clouds.13 mph60%29.95 "HgN/A
12:20 PM64 °FPassing clouds.12 mph64%29.95 "HgN/A
11:50 AM64 °FPassing clouds.14 mph60%29.95 "HgN/A
11:20 AM64 °FPassing clouds.13 mph60%29.95 "HgN/A
10:50 AM64 °FPassing clouds.13 mph64%29.95 "HgN/A
10:20 AM63 °FPassing clouds.14 mph64%29.95 "HgN/A
9:50 AM63 °FPassing clouds.14 mph64%29.95 "HgN/A
9:20 AM63 °FPassing clouds.13 mph64%29.95 "HgN/A
8:50 AM63 °FPassing clouds.12 mph64%29.95 "HgN/A
8:20 AM63 °FPassing clouds.13 mph59%29.95 "HgN/A
7:50 AM63 °FPassing clouds.13 mph59%29.95 "HgN/A
7:20 AM63 °FPassing clouds.14 mph64%29.95 "HgN/A
6:50 AM63 °FPassing clouds.16 mph59%29.95 "HgN/A
Weather by CustomWeather, © 2015

See weather overviewHow to use our weather pages